• In Hungary
  • List of Countries
  • For 7 days
  • Water Temperature
  • Satellite Maps
  • Weather Map
  • News
  • Weather Widgets
  • user-avatar
    Login

    Hourly Weather Orlovka

    Today, 21 August, Tuesday

    Time Temperature Precipitation Wind Pressure Humidity
    00:00 +12°C° 0 mm 3 mps 737 mmHg 74%
    01:00 +11°C° 0 mm 3 mps 737 mmHg 77%
    02:00 +11°C° 0 mm 3 mps 737 mmHg 78%
    03:00 +11°C° 0 mm 3 mps 737 mmHg 79%
    04:00 +11°C° 0 mm 3 mps 737 mmHg 80%
    05:00 +12°C° 0 mm 3 mps 737 mmHg 77%
    06:00 +13°C° 0 mm 4 mps 738 mmHg 74%
    07:00 +14°C° 0 mm 4 mps 738 mmHg 71%
    08:00 +17°C° 0 mm 4 mps 738 mmHg 65%
    09:00 +19°C° 0 mm 4 mps 738 mmHg 59%
    10:00 +21°C° 0 mm 5 mps 737 mmHg 53%
    11:00 +22°C° 0.1 mm 6 mps 737 mmHg 52%
    12:00 +23°C° 0.1 mm 6 mps 737 mmHg 50%
    13:00 +24°C° 0.1 mm 6 mps 737 mmHg 49%
    14:00 +24°C° 0.2 mm 7 mps 737 mmHg 49%
    15:00 +24°C° 0.2 mm 7 mps 736 mmHg 50%
    16:00 +24°C° 0.2 mm 7 mps 736 mmHg 50%
    17:00 +23°C° 0 mm 6 mps 736 mmHg 55%
    18:00 +22°C° 0 mm 5 mps 736 mmHg 60%
    19:00 +21°C° 0 mm 4 mps 736 mmHg 65%
    20:00 +21°C° 0.2 mm 4 mps 736 mmHg 69%
    21:00 +20°C° 0.2 mm 4 mps 736 mmHg 73%
    22:00 +19°C° 0.2 mm 4 mps 736 mmHg 77%
    23:00 +19°C° 0.1 mm 4 mps 735 mmHg 77%

    Tomorrow, 22 August, Wednesday

    Time Temperature Precipitation Wind Pressure Humidity
    00:00 +19°C° 0.1 mm 3 mps 735 mmHg 78%
    01:00 +18°C° 0.1 mm 3 mps 735 mmHg 79%
    02:00 +18°C° 0 mm 3 mps 735 mmHg 79%
    03:00 +18°C° 0 mm 3 mps 735 mmHg 80%
    04:00 +17°C° 0 mm 3 mps 735 mmHg 80%
    05:00 +18°C° 0 mm 4 mps 735 mmHg 75%
    06:00 +19°C° 0 mm 4 mps 735 mmHg 71%
    07:00 +20°C° 0 mm 4 mps 736 mmHg 67%
    08:00 +22°C° 0 mm 5 mps 736 mmHg 58%
    09:00 +25°C° 0 mm 5 mps 736 mmHg 49%
    10:00 +27°C° 0 mm 6 mps 736 mmHg 41%
    11:00 +27°C° 0 mm 6 mps 735 mmHg 39%
    12:00 +28°C° 0 mm 6 mps 735 mmHg 36%
    13:00 +29°C° 0 mm 7 mps 735 mmHg 34%
    14:00 +29°C° 0 mm 7 mps 735 mmHg 34%
    15:00 +29°C° 0 mm 7 mps 735 mmHg 34%
    16:00 +29°C° 0 mm 6 mps 734 mmHg 33%
    17:00 +27°C° 0 mm 5 mps 734 mmHg 37%
    18:00 +26°C° 0 mm 4 mps 734 mmHg 41%
    19:00 +24°C° 0 mm 3 mps 734 mmHg 45%
    20:00 +22°C° 0 mm 3 mps 734 mmHg 45%
    21:00 +21°C° 0 mm 3 mps 734 mmHg 46%
    22:00 +20°C° 0 mm 3 mps 734 mmHg 46%
    23:00 +20°C° 0 mm 3 mps 734 mmHg 46%

    Day after tomorrow, 23 August, Thursday

    Time Temperature Precipitation Wind Pressure Humidity
    00:00 +19°C° 0 mm 3 mps 733 mmHg 45%
    01:00 +19°C° 0 mm 3 mps 733 mmHg 45%
    02:00 +18°C° 0 mm 3 mps 733 mmHg 45%
    03:00 +18°C° 0 mm 4 mps 733 mmHg 45%
    04:00 +18°C° 0 mm 4 mps 732 mmHg 45%
    05:00 +18°C° 0 mm 4 mps 732 mmHg 50%
    06:00 +18°C° 0 mm 4 mps 732 mmHg 55%
    07:00 +18°C° 0 mm 4 mps 732 mmHg 60%
    08:00 +18°C° 0.2 mm 4 mps 733 mmHg 63%
    09:00 +18°C° 0.2 mm 4 mps 733 mmHg 66%
    10:00 +17°C° 0.2 mm 5 mps 733 mmHg 69%
    11:00 +19°C° 0.1 mm 5 mps 733 mmHg 63%
    12:00 +20°C° 0.1 mm 5 mps 733 mmHg 56%
    13:00 +21°C° 0.1 mm 4 mps 733 mmHg 49%
    14:00 +21°C° 0.1 mm 5 mps 733 mmHg 47%
    15:00 +21°C° 0.1 mm 5 mps 734 mmHg 45%
    16:00 +21°C° 0.1 mm 6 mps 734 mmHg 43%
    17:00 +20°C° 0 mm 6 mps 734 mmHg 47%
    18:00 +19°C° 0 mm 5 mps 734 mmHg 51%
    19:00 +17°C° 0 mm 5 mps 734 mmHg 55%
    20:00 +16°C° 0 mm 5 mps 735 mmHg 58%
    21:00 +15°C° 0 mm 5 mps 735 mmHg 61%
    22:00 +14°C° 0 mm 6 mps 736 mmHg 64%
    23:00 +13°C° 0 mm 5 mps 736 mmHg 66%

    24 August, Friday

    Time Temperature Precipitation Wind Pressure Humidity
    00:00 +12°C° 0 mm 5 mps 736 mmHg 68%
    01:00 +10°C° 0 mm 5 mps 736 mmHg 70%
    02:00 +10°C° 0 mm 5 mps 737 mmHg 72%
    03:00 +9°C° 0 mm 5 mps 737 mmHg 73%
    04:00 +8°C° 0 mm 4 mps 737 mmHg 75%
    05:00 +9°C° 0 mm 5 mps 737 mmHg 72%
    06:00 +9°C° 0 mm 5 mps 737 mmHg 68%
    07:00 +10°C° 0 mm 6 mps 738 mmHg 65%
    08:00 +11°C° 0 mm 6 mps 738 mmHg 59%
    09:00 +14°C° 0 mm 7 mps 738 mmHg 54%
    10:00 +16°C° 0 mm 7 mps 737 mmHg 48%
    11:00 +16°C° 0 mm 7 mps 737 mmHg 45%
    12:00 +17°C° 0 mm 7 mps 737 mmHg 42%
    13:00 +18°C° 0 mm 7 mps 737 mmHg 39%
    14:00 +17°C° 0 mm 7 mps 737 mmHg 43%
    15:00 +17°C° 0 mm 7 mps 737 mmHg 46%
    16:00 +16°C° 0 mm 7 mps 736 mmHg 49%
    17:00 +15°C° 0.5 mm 7 mps 736 mmHg 58%
    18:00 +14°C° 0.5 mm 6 mps 736 mmHg 67%
    19:00 +13°C° 0.5 mm 6 mps 736 mmHg 75%
    20:00 +12°C° 0.2 mm 5 mps 736 mmHg 78%
    21:00 +12°C° 0.2 mm 4 mps 736 mmHg 81%
    22:00 +11°C° 0.2 mm 4 mps 736 mmHg 83%
    23:00 +11°C° 0 mm 4 mps 736 mmHg 84%

    25 August, Saturday

    Time Temperature Precipitation Wind Pressure Humidity
    00:00 +10°C° 0 mm 4 mps 736 mmHg 85%
    01:00 +10°C° 0 mm 4 mps 736 mmHg 86%
    02:00 +8°C° 0 mm 4 mps 736 mmHg 86%
    03:00 +8°C° 0 mm 4 mps 736 mmHg 87%
    04:00 +8°C° 0 mm 3 mps 737 mmHg 87%
    05:00 +8°C° 0 mm 4 mps 737 mmHg 84%
    06:00 +10°C° 0 mm 4 mps 737 mmHg 81%
    07:00 +9°C° 0 mm 5 mps 737 mmHg 78%
    08:00 +12°C° 0 mm 5 mps 738 mmHg 70%
    09:00 +13°C° 0 mm 5 mps 738 mmHg 63%
    10:00 +15°C° 0 mm 5 mps 738 mmHg 56%
    11:00 +16°C° 0 mm 5 mps 738 mmHg 52%
    12:00 +19°C° 0 mm 5 mps 737 mmHg 47%
    13:00 +20°C° 0 mm 5 mps 737 mmHg 43%
    14:00 +20°C° 0 mm 5 mps 737 mmHg 42%
    15:00 +21°C° 0 mm 5 mps 738 mmHg 41%
    16:00 +21°C° 0 mm 6 mps 738 mmHg 40%
    17:00 +20°C° 0 mm 5 mps 738 mmHg 45%
    18:00 +19°C° 0 mm 4 mps 738 mmHg 50%
    19:00 +18°C° 0 mm 4 mps 738 mmHg 55%
    20:00 +17°C° 0 mm 4 mps 739 mmHg 60%
    21:00 +15°C° 0 mm 4 mps 739 mmHg 65%
    22:00 +14°C° 0 mm 3 mps 739 mmHg 70%
    23:00 +14°C° 0 mm 3 mps 739 mmHg 73%

    26 August, Sunday

    Time Temperature Precipitation Wind Pressure Humidity
    00:00 +13°C° 0 mm 4 mps 740 mmHg 75%
    01:00 +13°C° 0 mm 4 mps 740 mmHg 78%
    02:00 +13°C° 0 mm 3 mps 740 mmHg 80%
    03:00 +12°C° 0 mm 3 mps 740 mmHg 82%
    04:00 +12°C° 0 mm 3 mps 740 mmHg 84%
    05:00 +13°C° 0 mm 4 mps 740 mmHg 81%
    06:00 +14°C° 0 mm 4 mps 741 mmHg 79%
    07:00 +15°C° 0 mm 4 mps 741 mmHg 77%
    08:00 +18°C° 0 mm 4 mps 741 mmHg 70%
    09:00 +19°C° 0 mm 4 mps 741 mmHg 62%
    10:00 +21°C° 0 mm 5 mps 741 mmHg 55%
    11:00 +22°C° 0 mm 5 mps 741 mmHg 51%
    12:00 +23°C° 0 mm 5 mps 741 mmHg 48%
    13:00 +25°C° 0 mm 5 mps 741 mmHg 44%
    14:00 +25°C° 0 mm 4 mps 741 mmHg 43%
    15:00 +25°C° 0 mm 4 mps 740 mmHg 43%
    16:00 +26°C° 0 mm 4 mps 740 mmHg 43%
    17:00 +23°C° 0 mm 4 mps 740 mmHg 47%
    18:00 +22°C° 0 mm 3 mps 740 mmHg 52%
    19:00 +21°C° 0 mm 2 mps 740 mmHg 56%
    20:00 +20°C° 0 mm 2 mps 740 mmHg 59%
    21:00 +19°C° 0 mm 2 mps 740 mmHg 63%
    22:00 +18°C° 0 mm 2 mps 741 mmHg 66%
    23:00 +17°C° 0 mm 2 mps 741 mmHg 68%
    Show more